Regional Weather Roundup
Issued by NWS Green Bay, WI

Home | Current Version | Previous Version | Text Only | Print | Product List | Glossary On
Versions: 1 2 3 4 5 6 7 8 9 10 11 12 13 14 15 16 17 18 19 20 21 22 23 24 25 26 27 28 29 30 31 32 33 34 35 36 37 38 39 40 41 42 43 44 45 46 47 48 49 50
000
ASUS43 KGRB 271310
RWRGRB

NORTH-CENTRAL AND NORTHEAST WISCONSIN REGIONAL WEATHER ROUNDUP
NATIONAL WEATHER SERVICE GREEN BAY WI
700 AM CST SAT DEC 27 2014

WIZ005-009-010>012-018-019-271400-
NORTH CENTRAL WISCONSIN

CITY           SKY/WX    TMP DP  RH WIND       PRES   REMARKS
IRONWOOD       CLOUDY    28  28 100 NE7       29.89F
MANITOWISH WTR LGT SNOW  27  27 100 N5        29.88F VSB 3/4
ARBOR VITAE    LGT SNOW  32  30  94 N6        29.88S VSB 3/4
EAGLE RIVER    LGT SNOW  28  28 100 NE7       29.85F
LAND O LAKES   LGT SNOW  29  28  96 N8        29.87F
RHINELANDER    SNOW      28  27  96 NE6       29.86R VSB 1/2
PHILLIPS       LGT SNOW  28  26  95 N9        29.88R
ANTIGO         LGT SNOW  31  31  99 E5        29.83S VSB 1
TOMAHAWK       LGT SNOW  29  28  95 CALM      29.88R VSB 3/4
MERRILL        LGT SNOW  31  31 100 CALM      29.86R VSB 3/4
$$

WIZ013-073-271400-
NORTHEAST WISCONSIN

CITY           SKY/WX    TMP DP  RH WIND       PRES   REMARKS
IRON MOUNTAIN  LGT SNOW  31  29  92 VRB3      29.86F FOG
MARINETTE      CLOUDY    34  32  93 NE10      29.87S
OCONTO         CLOUDY    34  34 100 NE3       29.86F
$$

WIZ017-030-035>037-045-271400-
CENTRAL WISCONSIN

CITY           SKY/WX    TMP DP  RH WIND       PRES   REMARKS
MEDFORD        MIX PCPN  29  28  97 N6        29.83F VSB 1
WAUSAU         LGT SNOW  32  32 100 NW3       29.84R VSB 3/4
MOSINEE        LGT SNOW  32  32 100 CALM      29.85R VSB 1
MARSHFIELD     LGT SNOW  33  31  92 NE3       29.83F FOG
WISC RAPIDS    LGT RAIN  33  31  92 CALM      29.85F FOG
STEVENS POINT  MIX PCPN  31  31 100 CALM      29.84S
WAUPACA        RAIN      35  34  96 CALM      29.83F
SHAWANO        RAIN      34  33  96 CALM      29.86F
CLINTONVILLE   LGT RAIN  32  32 100 E7        29.84F
$$

WIZ038-039-048-051-271400-
FOX VALLEY

CITY           SKY/WX    TMP DP  RH WIND       PRES   REMARKS
NWS GREEN BAY  LGT RAIN  34  34 100 E7        29.85F VSB 3/4
APPLETON       FOG       34  34 100 E6        29.85R VSB 1/2
OSHKOSH        FOG       36  34  92 SE3       29.83R VSB 1
FOND DU LAC    CLOUDY    41  39  93 MISG      29.83F FOG
$$

WIZ022-050-052-271400-
EAST CENTRAL WISCONSIN

CITY           SKY/WX    TMP DP  RH WIND       PRES   REMARKS
STURGEON BAY   CLOUDY    39  36  87 E5        29.87F VSB 3/4
MANITOWOC      LGT RAIN  39  39 100 SE6       29.85F FOG
SHEBOYGAN      CLOUDY    38  37  97 S9        29.86F FOG
$$

LMZ563-521-522-541>543-271400-
LAKESHORE

STATION/POSITION TIME  TEMP    WIND        PRES    VSBY  WAVE
                       AIR SEA DIR/SP/G                  HT/PER
                 (UTC) (F)     (DEG/KT/KT) (MB)    (MI)  (FT/S)
SHEBOYGAN LKSHOR 1300   39 39  180/ 13/ 14 1011.8F
KEWAUNEE LKSHORE 1300   38     140/  3/  5 1010.7R
ALGOMA MARINA    1200           80/  9/ 10   N/A
NORTHPORT PIER   1300   35      50/ 10/ 12 1012.2F
SISTER BAY LKSHO 1200          120/  6/ 13   N/A
STURGEON BAY CG  1300   38      60/  7     1012.4      6   1
CHAMBERS ISLAND  1300   34      40/ 10/ 13 1012.2S
MENOMINEE LKSHOR 1300   34      30/ 15/ 17 1012.3F
$$


USA.gov is the U.S. government's official web portal to all federal, state and local government web resources and services.